This is the latest recevied weather packets stored in our database for station/object BARLOW-WX. If no packets are shown the sender has not sent any weather packets the latest 10 day(s).
| Time | Temp. | Humidity | Pressure | Rain* | Wind** | Luminosity | Snow |
|---|---|---|---|---|---|---|---|
| 1788000372 | 15° C | 79% | 992.5 hPa | 0 mm | - | - | - |
| 1787999476 | 16.11° C | 81% | 992.8 hPa | 0 mm | - | - | - |
| 1787998572 | 16.11° C | 81% | 992.8 hPa | 0 mm | - | - | - |
| 1787997673 | 15.56° C | 81% | 992.8 hPa | 0 mm | - | - | - |
| 1787996775 | 15.56° C | 78% | 992.3 hPa | 0 mm | - | - | - |
| 1787995875 | 15.56° C | 79% | 992.1 hPa | 0 mm | - | - | - |
| 1787994972 | 15.56° C | 79% | 992 hPa | 0 mm | - | - | - |
| 1787994074 | 15° C | 79% | 992 hPa | 0 mm | - | - | - |
| 1787993175 | 15° C | 76% | 991.6 hPa | 0 mm | - | - | - |
| 1787992275 | 15° C | 79% | 991.4 hPa | 0 mm | - | - | - |
| 1787991372 | 15° C | 79% | 991.3 hPa | 0 mm | - | - | - |
| 1787990475 | 15° C | 79% | 991.3 hPa | 0 mm | - | - | - |
| 1787989572 | 15° C | 80% | 991.6 hPa | 0 mm | - | - | - |
| 1787988675 | 15° C | 80% | 991.6 hPa | 0 mm | - | - | - |
| 1787987772 | 15° C | 80% | 991.6 hPa | 0 mm | - | - | - |
| 1787986873 | 15° C | 80% | 991.6 hPa | 0 mm | - | - | - |
| 1787985073 | 15° C | 80% | 991.3 hPa | 0 mm | - | - | - |
| 1787984172 | 15.56° C | 80% | 991.3 hPa | 0 mm | - | - | - |
| 1787983275 | 15.56° C | 80% | 991.3 hPa | 0 mm | - | - | - |
| 1787982374 | 15.56° C | 73% | 991.4 hPa | 0 mm | - | - | - |
| 1787981473 | 15.56° C | 79% | 991.5 hPa | 0 mm | - | - | - |
| 1787979692 | 15.56° C | 79% | 991.5 hPa | 0 mm | - | - | - |
| 1787978777 | 15.56° C | 75% | 991.2 hPa | 0 mm | - | - | - |
| 1787977878 | 16.11° C | 80% | 991.5 hPa | 0 mm | - | - | - |
| 1787976979 | 16.11° C | 80% | 991.6 hPa | 0 mm | - | - | - |
* Rain latest hour (hover to see other rain measurements)
** Current wind speed in m/s (hover to see current wind gust speed)